This is the latest recevied weather packets stored in our database for station/object IW1RCO-13. If no packets are shown the sender has not sent any weather packets the latest 10 day(s).
| Time | Temp. | Humidity | Pressure | Rain* | Wind** | Luminosity | Snow |
|---|---|---|---|---|---|---|---|
| 1788472769 | 21.11° C | 82% | 1019.3 hPa | - | - | - | - |
| 1788472472 | 20.56° C | 84% | 1019.3 hPa | - | - | - | - |
| 1788472169 | 21.11° C | 83% | 1019.6 hPa | - | - | - | - |
| 1788471872 | 21.11° C | 83% | 1019.7 hPa | - | - | - | - |
| 1788471569 | 20.56° C | 83% | 1019.6 hPa | - | - | - | - |
| 1788471272 | 21.11° C | 82% | 1019.5 hPa | - | - | - | - |
| 1788470968 | 21.67° C | 80% | 1019.5 hPa | - | - | - | - |
| 1788470368 | 21.67° C | 81% | 1019.2 hPa | - | - | - | - |
| 1788470071 | 21.67° C | 81% | 1019.7 hPa | - | - | - | - |
| 1788469768 | 21.11° C | 81% | 1019.2 hPa | - | - | - | - |
| 1788469471 | 21.11° C | 82% | 1019.6 hPa | - | - | - | - |
| 1788469167 | 21.11° C | 83% | 1019.5 hPa | - | - | - | - |
| 1788468871 | 21.11° C | 83% | 1019.3 hPa | - | - | - | - |
| 1788468567 | 21.11° C | 83% | 1019.6 hPa | - | - | - | - |
| 1788468270 | 21.11° C | 82% | 1019.5 hPa | - | - | - | - |
| 1788467967 | 21.11° C | 82% | 1019.6 hPa | - | - | - | - |
| 1788467670 | 21.11° C | 83% | 1019.6 hPa | - | - | - | - |
| 1788467367 | 21.11° C | 82% | 1019.6 hPa | - | - | - | - |
| 1788467074 | 21.11° C | 82% | 1019.8 hPa | - | - | - | - |
| 1788466767 | 21.67° C | 81% | 1019.8 hPa | - | - | - | - |
| 1788466470 | 21.67° C | 80% | 1019.7 hPa | - | - | - | - |
| 1788466173 | 22.22° C | 79% | 1019.7 hPa | - | - | - | - |
| 1788465869 | 21.67° C | 80% | 1019.7 hPa | - | - | - | - |
| 1788465573 | 21.67° C | 81% | 1019.5 hPa | - | - | - | - |
| 1788465269 | 21.67° C | 80% | 1019.7 hPa | - | - | - | - |
* Rain since midnight (hover to see other rain measurements)
** Current wind speed in m/s (hover to see current wind gust speed)